Regional Weather Roundup
Issued by NWS

Home | Current Version | Previous Version | Text Only | Print | Product List | Glossary Off
Versions: 1 2 3 4 5 6 7 8 9 10 11 12 13 14 15 16 17 18 19 20 21 22 23 24 25 26 27 28 29 30 31 32 33 34 35 36 37 38 39 40 41 42 43 44 45 46 47 48 49 50

000
ASUS43 KDTX 242310
RWRMI
MICHIGAN HOURLY REGIONAL WEATHER ROUNDUP
NATIONAL WEATHER SERVICE DETROIT/PONTIAC MI
600 PM EST SAT JAN 24 2015

NOTE: "FAIR" INDICATES FEW OR NO CLOUDS BELOW 12,000 FEET WITH NO
SIGNIFICANT WEATHER AND/OR OBSTRUCTION TO VISIBILITY.

MIZ047>049-052>055-059>063-066>070-074>076-081>083-250000-
SOUTHEAST LOWER MICHIGAN

CITY           SKY/WX    TMP DP  RH WIND       PRES   REMARKS
ADRIAN         MOCLDY    36  29  75 W9        29.63R
ALMA           CLOUDY    36  32  87 W7        29.58R
ANN ARBOR      CLOUDY    36  30  79 W8        29.61R
BAD AXE        CLOUDY    35  32  88 W8        29.52R
DETROIT CITY   CLOUDY    37  29  72 W8        29.59R
DETROIT        CLOUDY    34  30  85 SW7       29.60R
FLINT          CLOUDY    38  30  73 W10       29.58R
GROSSE ILE     CLOUDY    34  30  86 SW6       29.59R
HILLSDALE      CLOUDY    36  31  83 W9G16     29.61R
HOWELL         CLOUDY    35  31  85 W8        29.58R

CITY           SKY/WX    TMP DP  RH WIND       PRES   REMARKS
JACKSON        CLOUDY    36  29  75 W7        29.60R
LAMBERTVILLE   MOCLDY    36  30  80 SW7       29.63R
LANSING        CLOUDY    36  30  79 W10       29.60R
LAPEER         NOT AVBL
MASON          CLOUDY    35  30  80 W8        29.59R
MONROE         CLOUDY    34  30  86 SW7       29.60R FOG
MT. CLEMENS    CLOUDY    36  30  80 SW7       29.55R HAZE
PONTIAC        CLOUDY    35  29  78 W10         N/A
PORT HOPE        N/A     36  30  79 W9G20     29.50R
PORT HURON     CLOUDY    34  30  86 CALM      29.56R
TRI CITIES     CLOUDY    37  31  78 W12       29.56R
YPSILANTI      CLOUDY    39  29  67 W8        29.61R
$$
MIZ043>046-050>051-056>058-064>065-071>073-077>080-250000-
SOUTHWEST LOWER MICHIGAN

CITY           SKY/WX    TMP DP  RH WIND       PRES   REMARKS
BATTLE CREEK   CLOUDY    38  31  76 W12       29.63R
BENTON HARBOR  CLOUDY    37  31  78 W9        29.65R
BIG RAPIDS     CLOUDY    36  33  88 W5        29.57R
COLDWATER      CLOUDY    35  31  86 W7        29.62S
HOLLAND        CLOUDY    38  32  79 W9        29.61F
GRAND RAPIDS   LGT RAIN  35  32  88 W9        29.60S
KALAMAZOO      CLOUDY    36  31  82 W7        29.64R
MARSHALL       CLOUDY    35  31  84 W8        29.61R
MUSKEGON       CLOUDY    38  32  79 W9        29.61S
$$
MIZ016>042-250000-
NORTHERN LOWER MICHIGAN

CITY           SKY/WX    TMP DP  RH WIND       PRES   REMARKS
ALPENA         MOCLDY    32  21  64 NW18G26   29.54R
BEAVER ISLAND  CLOUDY    25  21  83 NW5       29.64R
BELLAIRE       CLOUDY    32  26  77 N7        29.61R
CADILLAC       FLURRIES  33  29  85 W8        29.55R
CHARLEVOIX     CLOUDY    29  25  86 N13G21    29.64R
FRANKFORT      LGT SNOW  32  31  96 N7        29.61R
GAYLORD        CLOUDY    28  25  88 NW8       29.55R
GRAYLING       CLOUDY    33  29  86 NW13      29.56R
HARBOR SPRINGS CLOUDY    29  22  74 NW13G25   29.60R
HOUGHTON LAKE  CLOUDY    33  29  85 NW10      29.55R
MANISTEE       CLOUDY    37  30  75 W9        29.60R
OSCODA         CLOUDY    35  30  82 NW7       29.52R
PELLSTON       CLOUDY    27  21  78 NW22G30   29.61R
TRAVERSE CITY  LGT SNOW  32  29  88 N10G16    29.60R FOG
$$
MIZ007>008-015-250000-
EASTERN UPPER MICHIGAN

CITY           SKY/WX    TMP DP  RH WIND       PRES   REMARKS
KINROSS        CLOUDY    21  18  86 NW14G22   29.58R
MACKINAC ISLAN MOCLDY    27  20  75 NW16      29.59R
NEWBERRY       CLOUDY    21  18  86 N12G18    29.62R
S. S. MARIE    PTCLDY    21  13  71 NW10      29.58R
$$
MIZ004>006-011>014-085-250000-
CENTRAL UPPER MICHIGAN

CITY           SKY/WX    TMP DP  RH WIND       PRES   REMARKS
MANISTIQUE     CLOUDY    23  18  80 N13G22    29.65R
ESCANABA       CLOUDY    25  18  74 N12G21    29.66R
MENOMINEE      CLOUDY    30  25  80 E15G23    29.63R
SAWYER-GWINN   LGT SNOW  19  18  93 N17       29.66R
$$
MIZ001>003-009>011-084-250000-
WESTERN UPPER MICHIGAN

CITY           SKY/WX    TMP DP  RH WIND       PRES   REMARKS
IRON MOUNTAIN  CLOUDY    26  20  77 N12       29.64R
HOUGHTON       LGT SNOW  16   9  74 NE13      29.71R
COPPER HARBOR    N/A     19  12  74 NE13      29.74R
IRONWOOD       CLOUDY    23  19  86 NE12      29.64R
$$

ABBREVIATIONS USED IN REMARKS
   TC - TEMPERATURE IN CELSIUS
  WCI - WIND CHILL INDEX
   HX - HEAT INDEX
  VSB - VISIBILITY



USA.gov is the U.S. government's official web portal to all federal, state and local government web resources and services.